Regional Weather Roundup
Issued by NWS Grand Forks, ND

Home | Current Version | Previous Version | Graphics & Text | Print | Product List | Glossary On
Versions: 1 2 3 4 5 6 7 8 9 10 11 12 13 14 15 16 17 18 19 20 21 22 23 24 25 26 27 28 29 30 31 32 33 34 35 36 37 38 39 40 41 42 43 44 45 46 47 48 49 50
000
ASUS43 KFGF 031210
RWRFGF
PRAIRIE TO PINES  WEATHER ROUNDUP
NATIONAL WEATHER SERVICE EASTERN NORTH DAKOTA/GRAND FORKS ND
600 AM CST TUE MAR 03 2015

 **SATELLITE DATA USED TO AUGMENT SKY COVER AT AUTOMATED STATIONS**
 *****  WEATHER ACROSS EASTERN NORTH DAKOTA  *****

CITY           SKY/WX    TMP DP  RH WIND       PRES   REMARKS
GRAND FORKS    CLOUDY    17  10  74 NW17G26   29.80R WCI   1
6HR MIN TEMP:  17; 6HR MAX TEMP:  25;

GRAND FRKS AFB CLOUDY    15   7  70 N21G28    29.81R WCI  -2
GRAND FRKS NWS   N/A     18 N/A N/A NW14        N/A  WCI   4
DEVILS LAKE    CLOUDY     9   1  72 NW24G30   29.84R WCI -12
6HR MIN TEMP:   9; 6HR MAX TEMP:  19;

FARGO          LGT SNOW  19  14  81 NW25G33   29.74R WCI   1
WAHPETON ARPT  CLOUDY    21  19  93 N23       29.72R WCI   5
$$

 ***** WEATHER ACROSS CENTRAL AND WESTERN NORTH DAKOTA  *****

CITY           SKY/WX    TMP DP  RH WIND       PRES   REMARKS
BISMARCK       CLOUDY     9  -3  58 NW25G40   29.96R WCI -12
6HR MIN TEMP:   9; 6HR MAX TEMP:  22; 6HR PCP: TRACE;

MINOT          FLURRIES   2  -7  66 NW25      29.96R WCI -22
6HR MIN TEMP:   2; 6HR MAX TEMP:  15; 6HR PCP: TRACE;

JAMESTOWN      CLOUDY    13   6  74 NW28G37   29.81R WCI  -8
6HR MIN TEMP:  13; 6HR MAX TEMP:  25; 6HR PCP: TRACE;

MINOT AFB      CLEAR      2  -5  73 NW26G36   29.94S WCI -23
GARRISON         N/A      4  -3  73 NW22      29.97R WCI -18
WILLISTON      CLEAR      2  -6  69 NW12      30.08R WCI -15
6HR MIN TEMP:   2; 6HR MAX TEMP:  16; 6HR PCP: TRACE;

DICKINSON      CLOUDY     7  -5  57 NW23G31   29.96R WCI -14
6HR MIN TEMP:   7; 6HR MAX TEMP:  18; 6HR PCP: TRACE;

HETTINGER      CLOUDY     9  -1  64 NW21      29.95R WCI -11
6HR MIN TEMP:   9; 6HR MAX TEMP:  20; 6HR PCP: TRACE;

$$

 *****  OTHER AIRPORT OBSERVATIONS IN OUR AREA  *****

CITY           SKY/WX    TMP DP  RH WIND       PRES   REMARKS
WALHALLA         N/A     12   9  85 NW15      29.83R WCI  -4
GRAFTON AIRPOR NOT AVBL
VALLEY CITY AR FLURRIES  16  12  86 NW29G35   29.79R WCI  -4
CANDO          FAIR       7   0  72 NW14      29.87R WCI -10
CAVALIER APRT  LGT SNOW  14  10  85 NW14      29.82R WCI  -1
GWINNER        CLOUDY    21  19  93 N22       29.76R WCI   5
SHEYENNE NWR     N/A     18  14  83 N16       29.95S WCI   3
ROLLA          FAIR       1  -2  85 NW24G30   29.83R WCI -22
 ***** THE ABOVE OBSERVATIONS ARE NON NWS ARE NOT QUALITY
       CONTROLLED AND MAY MIS-REPORT RAIN FOR SNOW...
$$

  *****  WEATHER ACROSS NORTHERN MINNESOTA  *****

CITY           SKY/WX    TMP DP  RH WIND       PRES   REMARKS
FLAG ISLAND    FLURRIES  21  18  86 W15       29.61R WCI   8
WARROAD        FLURRIES  21  18  86 W10       29.64F WCI  10
ROSEAU         CLOUDY    19  14  79 W13G20    29.66F WCI   7
HALLOCK        NOT AVBL
THF RVR FALLS  CLOUDY    18  14  86 NW22      29.72R WCI   0
6HR MIN TEMP:  18; 6HR MAX TEMP:  25;

BAUDETTE       CLOUDY    24  17  74 W13G22    29.61F WCI  12
6HR MIN TEMP:  23; 6HR MAX TEMP:  25;

WASKISH        FLURRIES  25  21  86 SW9       29.63F WCI  15
CROOKSTON      FLURRIES  19  16  86 N18G24    29.77R WCI   4
STEPHEN NDAWN    N/A     12   9  85 N17         N/A  WCI  -5
GREENBUSH NDAW   N/A     14  10  85 NW15        N/A  WCI  -1
$$
  *****  WEATHER ACROSS CENTRAL AND WEST MINNESOTA  *****

CITY           SKY/WX    TMP DP  RH WIND       PRES   REMARKS
FOSSTON        LGT SNOW  19  16  86 NW17G24   29.68R WCI   4
BEMIDJI        LGT SNOW  23  21  91 SW5       29.63F WCI  17
PARK RAPIDS    LGT SNOW  22  20  92 S7        29.63F FOG     WCI  13
6HR MIN TEMP:  22; 6HR MAX TEMP:  24; 6HR PCP:  0.03;

ELBOW LAKE     LGT SNOW  22  21  96 S10       29.68S WCI  11
6HR MIN TEMP:  22; 6HR MAX TEMP:  24;

WADENA         LGT SNOW  19  19 100 S6        29.66F VSB 1   WCI  11
DETROIT LAKES  LGT SNOW  27  25  93 W8        29.67S WCI  18
MOORHEAD       MIX PCPN  19  19 100 NW24      29.74R WCI   2
FERGUS FALLS   LGT SNOW  23  21  93 SW7       29.72S WCI  15
MORRIS MN      SNOW      23  21  93 S9        29.68F VSB 1/2 WCI  13
STAPLES        LGT SNOW  19  18  93 S10       29.67F WCI   8
$$
  *****  WEATHER ELSEWHERE ACROSS MINNESOTA  *****

CITY           SKY/WX    TMP DP  RH WIND       PRES   REMARKS
DULUTH         LGT SNOW  20  15  81 S13       29.71F VSB 3/4 WCI   7
6HR MIN TEMP:  19; 6HR MAX TEMP:  20; 6HR PCP:  0.05;

INTRNTL FALLS  CLOUDY    24  16  71 SW12G20   29.60F WCI  13
6HR MIN TEMP:  23; 6HR MAX TEMP:  24;

ELY            LGT SNOW  19  16  86 S9        29.67F WCI   9
CLOQUET        LGT SNOW  19  16  86 S7        29.72F WCI  10
WHEATON        SNOW      21  21 100 W5        29.72S VSB 1/2 WCI  15
BRAINERD       LGT SNOW  20  17  88 S13       29.68F VSB 3/4 WCI   7
6HR MIN TEMP:  20; 6HR MAX TEMP:  21; 6HR PCP: TRACE;

HIBBING        LGT SNOW  19  15  84 S6        29.66F FOG     WCI  11
6HR MIN TEMP:  19; 6HR MAX TEMP:  21; 6HR PCP:  0.03;

ALEXANDRIA     LGT SNOW  21  19  92 S8        29.67F FOG     WCI  11
6HR MIN TEMP:  21; 6HR MAX TEMP:  23; 6HR PCP:  0.04;

SAINT CLOUD    LGT SNOW  21  15  78 SE6       29.72F WCI  13
6HR MIN TEMP:  20; 6HR MAX TEMP:  22; 6HR PCP: TRACE;

MINNEAPOLIS    CLOUDY    22  13  68 SE7       29.75F WCI  13
6HR MIN TEMP:  22; 6HR MAX TEMP:  22;

$$

  *****  WEATHER ACROSS SOUTH DAKOTA  *****

CITY           SKY/WX    TMP DP  RH WIND       PRES   REMARKS
SIOUX FALLS    SNOW      25  22  88 CALM      29.67R VSB 1/2
6HR MIN TEMP:  25; 6HR MAX TEMP:  28; 6HR PCP:  0.02;

BROOKINGS      NOT AVBL
WATERTOWN      LGT SNOW  24  21  88 W7        29.66R FOG     WCI  16
6HR MIN TEMP:  23; 6HR MAX TEMP:  26; 6HR PCP:  0.13;

HURON          LGT SNOW  25  24  96 W5        29.70R VSB 3/4 WCI  19
6HR MIN TEMP:  25; 6HR MAX TEMP:  31; 6HR PCP:  0.09;

SISSETON       NOT AVBL
ABERDEEN       CLOUDY    19  14  81 N25G35    29.78R HAZE    WCI   1
6HR MIN TEMP:  19; 6HR MAX TEMP:  31; 6HR PCP:  0.07;

MITCHELL       LGT SNOW  26  24  92 CALM      29.68S FOG
PIERRE         LGT SNOW  18  14  84 N29G43    29.83R VSB 1   WCI  -1
6HR MIN TEMP:  18; 6HR MAX TEMP:  34; 6HR PCP:  0.12;

MOBRIDGE       CLOUDY    16   4  59 N32G44    29.84R WCI  -5
RAPID CITY     FOG       15  12  88 N32G43    29.89R VSB 3/4 WCI  -6
6HR MIN TEMP:  15; 6HR MAX TEMP:  31; 6HR PCP:  0.02;

$$

  *****  SOME WEATHER IN NEARBY STATES *****

CITY           SKY/WX    TMP DP  RH WIND       PRES   REMARKS
GLASGOW MT     PTCLDY     5  -4  66 NW17      30.15R WCI -14
6HR MIN TEMP:   5; 6HR MAX TEMP:  15;

GREAT FALLS MT CLEAR      2  -1  88 CALM      30.21R
6HR MIN TEMP:   1; 6HR MAX TEMP:  13;

CHEYENNE WY    LGT SNOW  20  16  84 N22G33    29.72R VSB 3/4 WCI   3
6HR MIN TEMP:  20; 6HR MAX TEMP:  42; 6HR PCP: TRACE;

SCOTTSBLUFF NE CLOUDY    25  19  78 N16       29.80R WCI  12
6HR MIN TEMP:  25; 6HR MAX TEMP:  31; 6HR PCP:  0.07;

OMAHA NE       FRZ DRZL  31  29  92 S10       29.67S FOG     WCI  22
6HR MIN TEMP:  31; 6HR MAX TEMP:  32; 6HR PCP: TRACE;

DES MOINES IA  FRZ DRZL  31  26  82 S12       29.71F WCI  22
6HR MIN TEMP:  30; 6HR MAX TEMP:  31; 6HR PCP: TRACE;

DAVENPORT IA   FRZ RAIN  29  26  89 S15       29.85R FOG     WCI  18
6HR MIN TEMP:  25; 6HR MAX TEMP:  29; 6HR PCP:  0.32;

CHICAGO IL     LGT SNOW  25  22  88 SE14      29.95F FOG     WCI  13
6HR MIN TEMP:  24; 6HR MAX TEMP:  26; 6HR PCP:  0.10;

EAU CLAIRE WI  CLOUDY    22  14  71 SE6       29.79F WCI  14
6HR MIN TEMP:  20; 6HR MAX TEMP:  23; 6HR PCP: TRACE;

LA CROSSE WI   CLOUDY    25  18  74 SE12      29.81F WCI  14
6HR MIN TEMP:  25; 6HR MAX TEMP:  26; 6HR PCP: TRACE;

$$

  *****  SOME NATIONAL WEATHER *****

CITY           SKY/WX    TMP DP  RH WIND       PRES   REMARKS
LA GUARDIA NY  MOCLDY    25  10  53 NW3       30.44R
6HR MIN TEMP:  24; 6HR MAX TEMP:  27;

RALEIGH NC     CLOUDY    38  22  52 E6G17     30.38S
6HR MIN TEMP:  38; 6HR MAX TEMP:  43;

ATLANTA GA     CLOUDY    51  48  89 E7        30.21S
6HR MIN TEMP:  51; 6HR MAX TEMP:  54; 6HR PCP:  0.02;

NEW ORLEANS LA FOG       65  64  97 CALM      30.12S VSB 1/8
6HR MIN TEMP:  65; 6HR MAX TEMP:  67;

OKLAHOMA CITY  CLOUDY    39  36  89 S20G26    29.90R FOG
6HR MIN TEMP:  37; 6HR MAX TEMP:  39;

ALBUQUERQUE NM CLOUDY    42  29  59 SW6       29.94R
6HR MIN TEMP:  41; 6HR MAX TEMP:  44; 6HR PCP: TRACE;

SALT LAKE CITY LGT RAIN  35  32  88 N3        29.79S
6HR MIN TEMP:  33; 6HR MAX TEMP:  36; 6HR PCP: TRACE;




USA.gov is the U.S. government's official web portal to all federal, state and local government web resources and services.